Location: Tyumen
(57.1527°N, 65.5323°E)
Time: 04:11:53
(UTC+05:00)

ISS - Pass Details

Date: 11 July 2025
Orbit: 413 x 417 km, 51.6° (Epoch: 13 July)

Event Time Altitude Azimuth Distance (km) Brightness Sun altitude
Rises 01:54:57 0° 269° (W) 2,359 -0.1 -9.3°
Reaches altitude 10° 01:57:27 10° 250° (WSW) 1,494 -1.3 -9.2°
Maximum altitude 01:59:51 19° 204° (SSW) 1,077 -2.3 -9.1°
Drops below altitude 10° 02:02:16 10° 158° (SSE) 1,492 -1.4 -9.0°
Sets 02:04:46 0° 139° (SE) 2,353 -0.3 -8.9°
